Trinidad, CO

3:04 PM MDT on March 30, 2017 (GMT -0600)
Stokes

Weather History for KTAD - December, 2011

Change the Weather History Date:

Friday, December 30, 2011

  Actual Average Record
Temperature  
Mean Temperature 41 °F 31 °F  
Max Temperature 53 °F 46 °F 71 °F (1980)
Min Temperature 28 °F 17 °F -10 °F (1990)
Degree Days  
Heating Degree Days 24 34  
Month to date heating degree days 1073 1003  
Since 1 July heating degree days 2201 2236  
Cooling Degree Days 0 0  
Month to date cooling degree days 0 0  
Year to date cooling degree days 1118 719  
Moisture  
Dew Point 26 °F    
Average Humidity 56    
Maximum Humidity 75    
Minimum Humidity 36    
Precipitation  
Precipitation 0.00 in 0.01 in 1.19 in (2006)
Month to date precipitation 0.76  
Year to date precipitation 9.68  
Sea Level Pressure  
Sea Level Pressure 29.93 in    
Wind  
Wind Speed 10 mph (WSW)    
Max Wind Speed 21 mph    
Max Gust Speed 25 mph    
Visibility 10 miles    
Events      
T = Trace of Precipitation, MM = Missing Value Source: NWS Daily Summary

Daily Weather History Graph

Daily Weather History Graph

Search for Another Location

Airport or City:

Trip Planner

Search our weather history database for the weather conditions in past years. The results will help you decide how hot, cold, wet, or windy it might be!

Date:

Astronomy

Dec. 30, 2011 Rise Set
Actual Time 7:10 AM MST 4:48 PM MST
Civil Twilight 6:41 AM MST 5:17 PM MST
Nautical Twilight 6:09 AM MST 5:50 PM MST
Astronomical Twilight 5:37 AM MST 6:22 PM MST
Moon 10:39 AM MST 11:17 PM MST
Length of Visible Light 10h 36m
Length of Day
9h 37m
Waxing Crescent, 36% of the Moon is Illuminated
Dec 30
Waxing Crescent
Dec 31
First Quarter
Jan 9
Full
Jan 16
Last Quarter
Jan 23
New

Hourly Weather History & Observations

Time (MST) Temp. Windchill Dew Point Humidity Pressure Visibility Wind Dir Wind Speed Gust Speed Precip Events Conditions
12:54 AM 39.0 °F 31.4 °F 24.1 °F 55% 29.94 in 10.0 mi NNE 12.7 mph - N/A   Clear
1:54 AM 37.9 °F 33.5 °F 23.0 °F 55% 29.96 in 10.0 mi SSW 5.8 mph - N/A   Clear
2:54 AM 37.0 °F 32.4 °F 23.0 °F 57% 29.97 in 10.0 mi SSE 5.8 mph - N/A   Clear
3:54 AM 30.9 °F 22.8 °F 21.9 °F 69% 29.97 in 10.0 mi WSW 9.2 mph - N/A   Clear
4:54 AM 34.0 °F 24.6 °F 21.9 °F 61% 29.93 in 10.0 mi SW 13.8 mph - N/A   Clear
5:54 AM 33.1 °F 24.4 °F 21.9 °F 64% 29.98 in 10.0 mi WSW 11.5 mph - N/A   Clear
6:54 AM 28.9 °F 20.4 °F 21.9 °F 75% 30.00 in 10.0 mi NW 9.2 mph - N/A   Clear
8:54 AM 35.1 °F 29.3 °F 23.0 °F 61% 30.06 in 10.0 mi NW 6.9 mph - N/A   Clear
9:54 AM 41.0 °F 34.7 °F 27.0 °F 57% 30.00 in 10.0 mi SSW 10.4 mph - N/A   Clear
10:54 AM 45.0 °F 42.6 °F 28.0 °F 52% 29.97 in 10.0 mi WSW 4.6 mph - N/A   Clear
11:54 AM 42.1 °F - 30.9 °F 65% 29.93 in 10.0 mi Calm Calm - N/A   Clear
12:54 PM 50.0 °F - 25.0 °F 38% 29.91 in 10.0 mi Calm Calm - N/A   Clear
1:54 PM 51.1 °F - 27.0 °F 39% 29.88 in 10.0 mi Calm Calm - N/A   Clear
2:54 PM 52.0 °F - 27.0 °F 38% 29.87 in 10.0 mi Calm Calm - N/A   Clear
3:54 PM 48.0 °F - 28.0 °F 46% 29.91 in 10.0 mi West 8.1 mph - N/A   Clear
4:54 PM 42.1 °F 34.5 °F 28.9 °F 60% 29.91 in 10.0 mi WSW 15.0 mph - N/A   Clear
5:54 PM 43.0 °F 35.4 °F 28.9 °F 58% 29.92 in 10.0 mi WSW 16.1 mph - N/A   Clear
6:54 PM 42.1 °F 35.2 °F 28.9 °F 60% 29.93 in 10.0 mi West 12.7 mph - N/A   Clear
7:54 PM 44.1 °F 37.4 °F 28.0 °F 53% 29.92 in 10.0 mi West 13.8 mph - N/A   Clear
8:54 PM 42.1 °F 34.2 °F 28.0 °F 58% 29.89 in 10.0 mi West 16.1 mph - N/A   Clear
9:54 PM 44.1 °F 36.2 °F 27.0 °F 51% 29.85 in 10.0 mi WSW 18.4 mph - N/A   Unknown
10:54 PM 42.1 °F 34.2 °F 27.0 °F 55% 29.83 in 10.0 mi WSW 16.1 mph - N/A   Clear
11:54 PM 42.1 °F 34.9 °F 26.1 °F 53% 29.82 in 10.0 mi WSW 13.8 mph - N/A   Clear